OK2ARM-12 Weather Reports


Display with metric or nautical units.
time (UTC)temp
F
wind
direction
speed
MPH
gust
MPH
rain 1hr
in
rain 24hr
in
rain mn
in
humidity
%
barometer
mb
20260504231052 59 0.0 0.0 0.00 0.00 0.00 40 1011.8
20260504230052 60 0.0 0.0 0.00 0.00 0.00 40 1011.8
20260504225053 60 0.0 0.0 0.00 0.00 0.00 39 1012.0
20260504224052 60 0.0 0.0 0.00 0.00 0.00 39 1012.1
20260504223052 60 0.0 0.0 0.00 0.00 0.00 39 1012.2
20260504222053 60 0.0 0.0 0.00 0.00 0.00 39 1012.2
20260504214605 61 0.0 0.0 0.00 0.00 0.00 38 1012.4
20260504213605 62 0.0 0.0 0.00 0.00 0.00 38 1012.5
20260504212605 62 0.0 0.0 0.00 0.00 0.00 38 1012.6
20260504211605 62 0.0 0.0 0.00 0.00 0.00 38 1012.6
20260504204118 63 0.0 0.0 0.00 0.00 0.00 38 1012.8
20260504203118 63 0.0 0.0 0.00 0.00 0.00 39 1012.8
20260504202118 63 0.0 0.0 0.00 0.00 0.00 38 1012.8
20260504201118 63 0.0 0.0 0.00 0.00 0.00 38 1012.9
20260504200118 63 0.0 0.0 0.00 0.00 0.00 38 1013.0
20260504193854 64 0.0 0.0 0.00 0.00 0.00 38 1013.0
20260504190408 64 0.0 0.0 0.00 0.00 0.00 39 1013.0
20260504185407 64 0.0 0.0 0.00 0.00 0.00 39 1013.0
20260504184407 65 0.0 0.0 0.00 0.00 0.00 38 1012.8
20260504182144 65 0.0 0.0 0.00 0.00 0.00 38 1012.8
20260504175919 67 0.0 0.0 0.00 0.00 0.00 34 1012.6
20260504174919 67 0.0 0.0 0.00 0.00 0.00 34 1012.6
20260504173920 67 0.0 0.0 0.00 0.00 0.00 35 1012.7
20260504172921 67 0.0 0.0 0.00 0.00 0.00 36 1012.6
20260504171920 68 0.0 0.0 0.00 0.00 0.00 37 1012.7
20260504170920 68 0.0 0.0 0.00 0.00 0.00 36 1012.7
20260504150207 71 0.0 0.0 0.00 0.00 0.00 39 1012.9
20260504141207 71 0.0 0.0 0.00 0.00 0.00 39 1013.4
20260504140206 70 0.0 0.0 0.00 0.00 0.00 38 1013.7
20260504110232 63 0.0 0.0 0.00 0.00 0.00 48 1015.2
20260504100231 62 0.0 0.0 0.00 0.00 0.00 49 1015.8
20260504080744 58 0.0 0.0 0.00 0.00 0.00 55 1015.6
20260504045032 50 0.0 0.0 0.00 0.00 0.00 59 1014.9
20260504044032 50 0.0 0.0 0.00 0.00 0.00 59 1014.8
20260504043032 50 0.0 0.0 0.00 0.00 0.00 59 1014.9
20260504042032 50 0.0 0.0 0.00 0.00 0.00 58 1014.8
20260504041032 50 0.0 0.0 0.00 0.00 0.00 58 1014.7
20260504040032 51 0.0 0.0 0.00 0.00 0.00 58 1015.0
20260504035032 50 0.0 0.0 0.00 0.00 0.00 57 1014.8
20260504034032 50 0.0 0.0 0.00 0.00 0.00 56 1014.9
20260504033032 50 0.0 0.0 0.00 0.00 0.00 55 1014.9
20260504032032 51 0.0 0.0 0.00 0.00 0.00 54 1014.7
20260504031033 51 0.0 0.0 0.00 0.00 0.00 53 1014.7
20260504030032 52 0.0 0.0 0.00 0.00 0.00 52 1014.9
20260504025033 52 0.0 0.0 0.00 0.00 0.00 52 1015.0
20260504022809 53 0.0 0.0 0.00 0.00 0.00 50 1015.1
20260504021808 52 0.0 0.0 0.00 0.00 0.00 51 1015.0
20260504020808 53 0.0 0.0 0.00 0.00 0.00 50 1014.9
20260504015808 53 0.0 0.0 0.00 0.00 0.00 49 1014.9
20260504014808 53 0.0 0.0 0.00 0.00 0.00 49 1014.9
20260504013809 53 0.0 0.0 0.00 0.00 0.00 48 1014.9
20260504012808 53 0.0 0.0 0.00 0.00 0.00 47 1014.8
20260504005322 54 0.0 0.0 0.00 0.00 0.00 46 1014.8
20260504004322 54 0.0 0.0 0.00 0.00 0.00 46 1014.9
20260504003322 54 0.0 0.0 0.00 0.00 0.00 45 1015.0
20260504002322 54 0.0 0.0 0.00 0.00 0.00 45 1014.9
20260504001322 54 0.0 0.0 0.00 0.00 0.00 44 1015.0
20260504000322 54 0.0 0.0 0.00 0.00 0.00 44 1015.1
20260503235322 55 0.0 0.0 0.00 0.00 0.00 43 1015.1
20260503234322 55 0.0 0.0 0.00 0.00 0.00 43 1015.2
20260503233321 55 0.0 0.0 0.00 0.00 0.00 43 1015.2
20260503232322 56 0.0 0.0 0.00 0.00 0.00 43 1015.3